Home > Weather > Podgorica > Past weeks

Flag for Montenegro Weather for the Past 2 Weeks in Podgorica, Montenegro

Now
72 °F

Scattered clouds.


Feels Like: 76 °F
Forecast: 50 / 75 °F
Wind: 5 mph from South

Location: Podgorica Titograd

Current Time: May 5, 2016 at 1:08:45 PM

Latest Report: May 5, 2016 at 12:30 PM


Visibility: N/A

Pressure: 29.95 "Hg

Humidity: 31%

Dew Point: 39 °F

Location of PodgoricaLocation

Historic Weather in Podgorica — Graph

°F

Podgorica Temperature Yesterday

Maximum temperature yesterday: 70 °F (at 1:00 PM)
Minimum temperature yesterday: 54 °F (at 4:30 AM)
Average temperature yesterday: 62 °F

High & Low Weather Summary for the Past Weeks

 TemperatureHumidityPressure
High75 °F (Apr 30, 5:00 PM)100% (Apr 23, 9:00 PM)30.27 "Hg (Apr 23, 9:00 PM)
Low46 °F (Apr 25, 6:00 PM)11% (Apr 21, 4:00 PM)29.50 "Hg (Apr 25, 5:30 AM)
Average59 °F66%29.88 "Hg
* Reported Apr 20 12:00 Noon — May 5 12:00 Noon, Podgorica, Weather by CustomWeather, © 2016

Note: Actual official high and low records may vary slightly from our data, if they occured in-between our weather recording intervals... More about our weather records

Advertising

Podgorica Weather History for the Previous 24 Hours

Scroll right to see more
 ConditionsComfort  
Time TempWeatherWind HumidityBarometerVisibility
12:00 PM
Thu, May 5
70 °FScattered clouds.5 mph38%29.98 "HgN/A
11:30 AM70 °FScattered clouds.8 mph38%29.98 "HgN/A
11:00 AM70 °FPassing clouds.10 mph33%29.98 "HgN/A
10:30 AM68 °FPassing clouds.13 mph35%29.95 "HgN/A
10:00 AM68 °FPassing clouds.15 mph35%29.95 "HgN/A
9:30 AM66 °FPassing clouds.13 mph37%29.95 "HgN/A
9:00 AM66 °FPassing clouds.13 mph37%29.95 "HgN/A
8:30 AM64 °FPassing clouds.8 mph43%29.98 "HgN/A
8:00 AM63 °FPassing clouds.3 mph49%29.98 "HgN/A
7:30 AM61 °FPassing clouds.2 mph52%29.98 "HgN/A
7:00 AM59 °FPassing clouds.3 mph59%29.98 "HgN/A
6:30 AM57 °FPassing clouds.3 mph63%29.95 "HgN/A
6:00 AM54 °FPassing clouds.7 mph63%29.95 "HgN/A
5:30 AM57 °FPassing clouds.5 mph51%29.92 "HgN/A
5:00 AM55 °FClear.7 mph55%29.92 "Hg10 mi
4:30 AM55 °FClear.7 mph59%29.92 "Hg10 mi
4:00 AM55 °FClear.3 mph55%29.92 "Hg10 mi
3:30 AM57 °FClear.8 mph51%29.92 "Hg10 mi
3:00 AM57 °FClear.2 mph51%29.92 "Hg10 mi
2:30 AM59 °FClear.6 mph51%29.92 "Hg10 mi
2:00 AM61 °FPassing clouds.10 mph45%29.89 "HgN/A
1:30 AM61 °FPassing clouds.13 mph45%29.92 "HgN/A
1:00 AM61 °FClear.10 mph45%29.92 "Hg10 mi
12:30 AM61 °FPassing clouds.7 mph45%29.92 "HgN/A
12:00 AM61 °FPassing clouds.6 mph48%29.92 "HgN/A
11:30 PM
Wed, May 4
61 °FPassing clouds.9 mph48%29.92 "HgN/A
11:00 PM61 °FClear.7 mph45%29.89 "Hg10 mi
10:30 PM63 °FPassing clouds.14 mph42%29.89 "HgN/A
10:00 PM63 °FPassing clouds.15 mph42%29.89 "HgN/A
9:30 PM63 °FPassing clouds.17 mph42%29.89 "HgN/A
9:00 PM63 °FPassing clouds.17 mph45%29.89 "HgN/A
8:30 PM63 °FPartly sunny.16 mph45%29.86 "HgN/A
8:00 PM63 °FPartly sunny.17 mph45%29.86 "HgN/A
7:30 PM63 °FPartly sunny.18 mph45%29.83 "HgN/A
7:00 PM63 °FPartly sunny.17 mph45%29.83 "HgN/A
6:30 PM64 °FPartly sunny.17 mph40%29.83 "HgN/A
6:00 PM66 °FPassing clouds.21 mph37%29.83 "HgN/A
5:30 PM66 °FPassing clouds.18 mph37%29.83 "HgN/A
5:00 PM66 °FPassing clouds.20 mph37%29.83 "HgN/A
4:30 PM68 °FPassing clouds.20 mph35%29.80 "HgN/A
4:00 PM70 °FPassing clouds.22 mph33%29.80 "HgN/A
3:30 PM70 °FScattered clouds.21 mph33%29.80 "HgN/A
3:00 PM70 °FScattered clouds.21 mph35%29.80 "HgN/A
2:30 PM70 °FScattered clouds.22 mph33%29.80 "HgN/A
2:00 PM68 °FScattered clouds.16 mph38%29.80 "HgN/A
1:30 PM68 °FScattered clouds.15 mph38%29.80 "HgN/A
1:00 PM70 °FScattered clouds.12 mph40%29.80 "HgN/A
Weather by CustomWeather, © 2016

See weather overviewHow to use our weather pages